Theta_e
302 303 304 304 305 306 307 307 309 310 313 314 318 319 319 321 325 325 327 320 328 334 332 333 334 332 332 332 330 329 328 329 328 326 324 323 321 320 321 319 319 319 319
302 303 303 304 305 306 307 307 307 309 312 315 317 319 319 321 323 324 326 325 326 330 331 330 329 332 333 333 331 329 330 329 327 324 322 321 320 320 319 318 318 317 317
302 302 302 305 307 308 308 308 309 309 311 314 315 318 319 321 325 323 324 326 325 323 327 332 332 331 332 332 331 331 330 329 326 323 321 320 318 318 318 317 316 316 315
303 301 302 304 308 308 311 311 310 307 310 311 312 317 319 321 322 322 323 323 323 324 324 328 330 331 333 333 331 331 329 328 324 322 320 318 317 317 317 316 316 315 316
304 302 303 305 307 310 308 309 310 309 308 309 310 311 315 318 319 320 320 320 322 323 323 324 324 326 331 331 330 330 329 327 323 321 320 318 317 318 316 315 315 315 315
305 304 305 306 308 308 309 310 308 310 309 307 306 305 306 309 315 318 318 319 320 321 322 321 319 320 325 329 330 329 329 326 322 320 320 318 317 317 315 315 315 314 314
308 306 306 307 307 306 308 310 309 310 308 309 306 305 304 305 306 312 315 315 314 315 317 317 318 319 321 327 328 328 328 326 322 321 319 317 317 317 316 315 315 314 314
306 307 307 307 307 307 310 311 312 308 309 311 305 304 300 301 303 304 310 310 309 311 311 312 313 314 315 317 321 327 327 324 322 320 318 318 317 316 315 315 314 314 313
305 306 307 307 307 309 309 310 312 310 308 309 309 304 298 296 298 301 302 305 306 306 307 308 309 311 312 313 317 323 322 322 321 320 318 317 316 316 315 314 314 313 312
304 306 306 305 307 308 308 310 312 312 311 307 308 308 306 302 297 295 299 300 301 302 303 305 307 308 310 312 310 310 314 318 318 319 317 316 315 314 313 312 312 311 310
304 305 305 305 305 305 306 309 311 311 311 308 306 304 305 304 304 301 295 297 298 299 301 302 303 305 308 311 314 309 311 314 314 314 315 314 313 312 312 310 309 309 309
302 304 305 305 305 305 306 309 313 311 311 306 307 306 305 303 301 300 298 297 295 296 298 300 300 302 305 308 305 304 309 311 312 312 312 312 311 310 310 308 308 308 307
300 301 303 302 303 307 307 310 312 311 307 307 307 305 306 306 305 304 300 297 295 296 297 298 298 300 303 305 304 302 303 308 309 309 309 309 307 307 306 306 305 304 304
300 301 302 303 305 306 308 311 311 311 310 309 305 305 306 307 306 305 301 299 295 295 295 295 297 299 301 303 300 300 303 303 307 307 307 305 304 304 303 303 303 303 303
301 301 303 303 304 307 308 312 311 310 310 309 306 306 305 306 306 305 305 305 301 295 294 295 295 298 300 301 299 302 302 300 304 305 304 304 303 302 301 301 301 302 303
301 302 303 304 304 305 307 311 311 310 309 308 307 307 306 306 306 306 306 306 305 301 293 296 295 297 299 299 297 299 297 296 299 301 301 301 301 300 300 301 301 301 301
302 302 303 303 304 305 307 310 311 310 308 308 307 306 306 307 306 306 307 306 303 300 293 293 295 297 297 297 297 298 297 297 297 298 299 299 299 299 299 299 299 299 299
302 302 304 303 304 306 309 311 310 309 308 306 306 306 306 307 306 306 306 304 302 300 296 291 293 294 295 296 295 294 295 296 295 296 297 297 297 297 297 297 297 297 296
301 302 304 303 305 306 309 310 310 309 308 308 307 307 306 307 305 306 304 302 300 299 297 294 292 294 293 294 292 292 291 291 292 294 295 294 294 294 294 294 294 293 292
300 302 303 304 306 306 309 311 310 309 308 308 308 308 307 307 306 305 303 300 299 298 296 294 293 292 291 291 291 288 286 287 288 291 291 290 291 291 291 292 291 291 291
303 303 302 305 306 305 309 310 310 308 309 308 307 307 307 301 298 301 302 299 298 296 295 293 291 290 287 288 288 287 285 286 286 287 286 286 287 287 288 289 289 289 290
302 303 303 302 302 303 299 302 307 309 307 306 303 300 298 293 295 295 296 297 298 297 295 294 293 290 289 289 288 287 286 285 283 286 284 283 285 284 286 287 288 288 288
300 300 300 300 301 302 297 296 298 306 304 302 300 298 295 293 293 294 293 293 291 294 297 298 294 294 290 291 289 287 286 286 284 285 284 281 282 281 283 285 287 287 287
298 298 297 298 299 297 296 297 296 302 300 299 298 297 296 295 295 294 292 290 289 290 292 293 294 292 292 292 292 291 287 285 285 285 285 281 282 277 278 279 286 286 286
296 296 295 296 297 295 294 296 299 298 296 294 295 296 296 294 291 292 290 286 286 286 291 292 293 293 294 293 291 288 285 285 283 283 284 283 282 280 281 277 279 284 285
290 288 289 291 289 294 295 295 298 296 292 288 289 290 289 293 291 292 289 287 285 284 285 283 285 285 286 288 290 287 288 285 282 282 284 281 280 279 277 277 277 278 278
Wind_Speed
4 4 4 4 4 4 4 5 5 4 3 7 8 2 3 4 2 3 2 9 13 21 22 22 21 18 18 18 17 17 16 15 17 17 16 16 14 14 15 14 14 13 14
4 4 4 4 5 4 4 4 5 5 4 5 6 3 4 1 2 5 4 5 15 20 17 20 20 21 21 20 19 18 17 18 19 18 17 15 13 15 14 14 13 13 13
4 4 3 4 5 4 7 5 5 5 4 5 4 3 1 3 4 4 7 6 9 12 13 16 18 18 19 19 20 20 20 20 20 19 17 15 13 14 13 14 12 12 11
7 6 4 4 4 5 6 6 6 4 4 4 1 1 3 3 6 7 8 6 7 5 6 11 10 15 19 20 21 21 20 22 19 20 17 14 14 14 13 13 12 12 13
5 4 5 4 5 5 4 4 6 3 3 5 8 7 6 3 6 7 9 9 7 5 4 7 3 8 15 17 18 20 22 23 20 20 17 14 14 14 13 11 12 12 13
5 5 4 5 5 4 5 5 5 5 4 6 8 9 7 8 5 8 9 8 8 7 6 4 5 3 10 16 20 21 22 24 20 19 17 15 14 15 12 12 13 12 12
6 6 4 5 6 5 6 7 3 4 4 3 5 7 10 10 11 6 7 8 10 8 10 8 6 6 7 15 18 21 25 24 20 19 17 16 14 15 13 12 12 12 11
4 4 5 4 6 6 7 6 4 1 2 1 3 4 2 6 8 9 8 10 10 8 10 10 10 9 8 6 6 19 25 24 22 19 17 16 16 14 13 13 12 11 12
3 2 4 3 5 5 6 6 5 3 3 3 4 5 2 3 1 6 10 8 10 9 9 11 10 8 7 5 7 13 23 23 22 19 17 16 16 14 13 12 11 11 10
1 2 3 3 4 4 6 6 5 4 4 5 4 6 6 2 3 4 6 8 11 10 10 9 8 8 7 5 9 16 11 19 19 19 16 16 14 12 11 10 11 11 11
2 2 3 4 4 3 6 7 5 5 3 3 3 4 5 4 2 4 6 5 10 6 9 8 7 7 7 7 10 14 15 17 19 14 14 14 14 12 11 11 10 12 11
2 4 4 4 4 3 5 5 5 5 5 5 3 3 3 4 7 5 5 7 6 6 8 8 7 6 8 7 12 16 15 17 17 14 15 16 14 12 12 12 13 13 15
2 5 5 5 4 4 5 5 3 4 4 5 8 5 2 7 7 9 10 6 4 2 4 7 6 5 6 7 9 14 14 17 18 18 19 16 16 15 15 14 14 14 15
2 5 5 5 5 5 5 4 3 3 4 4 8 7 6 6 7 9 7 12 6 3 4 3 5 6 6 7 9 13 11 14 17 19 18 18 17 17 15 13 12 11 11
2 3 5 6 5 4 5 4 4 5 6 6 7 9 7 6 5 4 7 7 8 4 3 3 3 5 5 6 8 10 10 14 16 18 17 16 16 14 12 10 9 10 13
1 3 4 6 5 5 4 4 4 5 7 5 5 9 8 6 7 4 3 4 4 8 5 2 3 2 5 7 9 11 11 12 17 19 19 18 17 14 12 13 14 14 14
1 3 4 5 4 4 3 3 6 6 8 7 7 8 8 7 6 5 5 5 6 6 7 3 2 2 4 9 8 8 8 10 10 18 17 18 17 16 17 16 15 15 15
2 4 2 3 4 3 4 6 6 7 8 8 8 9 7 5 7 6 5 6 6 5 5 8 3 2 5 6 8 10 8 8 9 15 19 18 19 20 19 19 20 19 20
3 2 1 2 4 4 3 5 6 6 7 6 8 8 8 9 7 6 6 5 5 5 5 7 5 2 3 4 7 8 8 9 8 18 22 23 22 22 21 20 19 20 20
3 2 2 1 1 2 1 6 6 6 6 5 6 7 8 8 9 9 7 6 6 7 8 8 7 5 3 3 5 6 7 6 7 6 15 15 17 20 20 21 20 18 17
2 4 2 1 3 2 3 6 7 7 8 7 6 6 5 7 10 8 7 7 8 6 7 8 5 4 3 6 7 3 7 7 6 3 7 7 6 7 9 14 13 17 18
3 3 2 2 1 2 6 10 7 7 6 8 8 6 6 8 9 11 12 9 7 9 8 7 5 8 7 5 5 8 9 7 4 2 6 7 5 7 7 7 16 18 19
2 2 2 1 2 3 2 8 10 6 7 6 7 7 6 5 9 10 14 14 10 10 4 6 11 9 9 8 10 10 4 2 4 7 8 8 5 7 5 8 17 18 18
3 2 1 3 2 2 6 11 10 6 6 6 6 6 8 7 7 10 10 10 9 8 5 4 6 6 6 9 9 7 6 7 8 2 2 4 3 3 4 4 17 17 18
2 2 0 2 5 3 5 12 10 6 7 6 5 6 7 8 10 14 12 11 10 9 14 20 20 18 16 16 13 10 7 11 3 1 1 4 4 6 5 5 5 13 15
3 3 2 4 3 4 7 4 9 5 6 4 5 6 8 9 12 12 11 11 11 6 8 7 8 13 14 12 8 3 8 8 5 2 2 4 6 4 4 3 3 4 4
Wind_Direction
336 335 327 311 307 298 295 320 313 306 309 297 298 126 293 310 71 146 140 162 161 155 157 164 142 141 149 155 153 141 141 127 118 104 100 96 99 97 93 90 83 81 75
333 326 340 334 319 326 332 307 299 302 285 269 276 214 242 210 119 125 119 152 147 149 156 157 162 165 162 158 149 145 138 127 117 112 100 98 101 97 94 90 83 80 75
310 321 319 313 302 345 334 323 295 278 292 267 267 281 67 85 130 126 115 140 142 147 168 163 155 164 168 162 152 146 135 129 119 110 103 106 102 97 99 90 86 81 78
4 347 342 304 359 345 336 327 308 299 315 318 287 74 101 99 121 120 107 124 118 127 100 114 160 170 175 160 153 141 136 130 118 112 116 109 105 99 97 92 86 81 70
339 314 293 348 358 339 310 319 324 325 337 39 42 29 16 126 114 104 103 102 102 100 85 103 209 173 170 152 146 139 136 124 123 117 116 114 109 100 91 91 83 76 70
326 313 356 359 340 328 328 323 307 21 75 92 72 55 37 30 55 105 103 87 86 87 85 113 92 121 145 153 146 148 137 124 123 115 116 113 109 103 100 95 86 75 71
19 351 358 344 336 318 311 322 323 86 99 114 96 70 56 43 42 48 80 88 73 77 84 74 84 78 59 159 151 143 135 124 120 120 119 111 108 102 94 87 84 75 71
40 14 334 359 329 316 330 326 323 79 78 342 105 85 75 31 33 24 66 70 66 74 72 64 61 72 73 69 74 144 133 124 123 120 114 114 100 96 92 80 74 68 63
97 69 335 7 333 332 324 332 355 124 109 60 84 114 95 79 27 14 56 67 72 64 69 64 52 51 63 65 61 125 126 125 122 119 115 109 102 94 88 84 76 65 59
352 50 358 359 332 353 333 324 329 121 110 110 76 85 81 139 119 91 48 53 53 51 56 58 46 39 39 55 78 70 91 114 116 113 112 109 104 96 88 75 66 52 40
337 18 20 8 4 2 319 321 329 141 117 112 101 120 111 106 86 112 88 75 52 27 49 50 49 39 36 59 87 90 79 87 92 95 96 98 93 84 75 62 55 46 35
319 13 4 22 339 323 333 326 331 131 135 110 86 92 123 135 144 121 115 94 92 38 52 47 37 27 42 63 80 81 87 96 96 92 88 80 76 70 64 54 47 38 32
1 348 345 355 330 351 344 342 36 81 111 141 134 137 95 117 125 127 124 115 112 99 67 45 24 30 47 62 74 85 76 87 90 84 77 78 74 64 58 54 46 36 32
356 348 331 339 354 358 350 13 42 74 83 71 86 93 99 103 121 145 128 133 97 87 73 84 27 24 43 65 69 77 79 72 83 83 83 79 75 67 61 57 53 48 39
77 346 334 334 356 7 1 54 51 59 71 72 88 100 98 100 83 80 122 134 126 120 89 45 83 10 53 69 62 77 75 72 74 74 74 75 76 71 64 58 47 39 29
81 34 4 344 6 357 20 85 86 76 84 75 84 98 101 99 105 95 92 77 104 125 111 62 62 86 66 75 70 78 76 72 69 72 72 72 69 64 56 44 39 34 25
19 55 33 347 354 343 28 107 101 106 99 103 105 105 100 113 112 94 78 89 92 88 112 89 83 81 72 96 79 77 77 74 67 70 71 70 64 56 51 45 42 41 38
360 83 19 342 321 355 10 118 115 118 117 118 114 113 104 100 95 96 91 90 99 99 119 122 115 97 73 81 86 82 77 71 77 73 72 71 68 65 63 59 56 53 51
297 99 103 329 3 344 37 111 114 115 116 123 123 122 128 124 121 120 107 106 97 103 100 132 120 96 94 100 89 80 76 78 71 73 73 67 68 66 61 59 54 50 46
304 302 142 272 351 330 327 130 129 119 112 115 119 129 137 141 137 126 122 116 109 112 114 116 114 114 96 103 97 112 85 67 81 75 71 70 65 64 66 62 55 53 50
270 272 148 184 21 304 170 128 137 133 130 120 108 112 117 119 119 125 133 132 129 123 131 132 128 120 121 147 144 114 110 106 69 69 80 62 66 63 51 49 56 55 56
249 240 132 98 9 344 154 137 129 123 118 127 120 98 102 104 92 97 99 102 135 145 143 142 147 158 154 142 125 135 135 136 116 228 87 72 59 58 52 53 58 59 55
194 169 124 122 137 105 118 115 116 119 118 113 114 116 92 94 105 106 92 84 71 66 106 155 155 164 156 160 144 147 166 116 119 134 117 83 70 66 28 62 59 57 58
156 147 133 119 136 102 143 129 116 107 105 112 123 126 130 127 128 119 105 84 65 47 38 78 113 123 125 139 145 142 125 109 102 113 143 101 105 92 43 20 61 58 55
137 102 61 121 136 102 129 136 121 119 115 115 117 124 129 127 139 129 116 110 92 75 65 74 78 84 111 122 129 122 135 137 113 113 49 114 152 111 86 49 24 48 58
126 121 87 54 90 134 125 122 125 126 121 123 104 113 122 138 142 139 130 134 119 120 112 79 66 63 66 80 99 98 151 140 123 122 196 106 150 158 113 60 36 30 10